Location: Azul
(36.7830°S, 59.8500°W)
Time: 00:30:16
(UTC-03:00)

FO-29 - Pass Details

Date: 28 October 2021
Orbit: 799 x 1322 km, 98.5° (Epoch: 28 November)

Event Time Altitude Azimuth Distance (km) Brightness Sun altitude
Rises 22:12:11 0° 168° (SSE) 4,158 13.2 -28.5°
Reaches altitude 10° 22:14:46 10° 167° (SSE) 3,241 12.6 -28.8°
Maximum altitude 22:22:26 89° 75° (ENE) 1,319 10.0 -29.8°
Enters shadow 22:24:28 56° 348° (NNW) 1,545 10.2 -30.1°
